Tracking 30995 objects as of 5-Jul-2025
HD Live streaming from Space Station
objects crossing your sky now

FENGYUN 1C DEB

Track FENGYUN 1C DEB now!
10-day predictions


NORAD ID: 31715
Int'l Code: 1999-025CDN
Perigee: 596.4 km
Apogee: 868.5 km
Inclination: 99.3 °
Period: 99.3 minutes
Semi major axis: 7103 km
RCS: 0.0108 m2 (small)
Launch date: May 10, 1999
Source: People's Republic of China (PRC)
Launch site: Taiyaun Space Center, China (TSC)

Note: This is SATELLITE DEBRIS
Your satellite tracking list
Your tracking list is empty




NASA's NSSDC Master Catalog

Two Line Element Set (TLE):
1 31715U 99025CDN 25183.73934488  .00003169  00000-0  65821-3 0  9991
2 31715  99.2946 355.4387 0191591 244.7449 113.3778 14.50103583593538
Source of the keplerian elements: AFSPC